EW1269 Weather Reports


time (UTC)temp
F
wind
direction
speed
knots
gust
knots
rain 1hr
in
rain 24hr
in
rain mn
in
humidity
%
barometer
mb
20260503212322 78 295 8.7 12.2 0.00 0.00 0.00 48 1013.1
20260503211338 78 315 7.8 12.2 0.00 0.00 0.00 46 1013.3
20260503210343 78 307 7.8 12.2 0.00 0.00 0.00 46 1013.3
20260503205340 78 360 6.1 13.9 0.00 0.00 0.00 46 1013.4
20260503204331 78 320 7.8 11.3 0.00 0.00 0.00 49 1013.5
20260503203322 77 5 3.5 11.3 0.00 0.00 0.00 50 1013.6
20260503202342 77 13 6.1 11.3 0.00 0.00 0.00 50 1013.7
20260503201352 77 295 5.2 8.7 0.00 0.00 0.00 51 1013.7
20260503200346 76 315 5.2 7.8 0.00 0.00 0.00 54 1013.8
20260503195342 76 308 5.2 9.6 0.00 0.00 0.00 54 1014.1
20260503194359 75 338 2.6 9.6 0.00 0.00 0.00 54 1014.3
20260503193354 74 316 7.0 11.3 0.00 0.00 0.00 54 1014.4
20260503192323 74 344 7.0 11.3 0.00 0.00 0.00 52 1014.5
20260503191335 74 360 4.3 9.6 0.00 0.00 0.00 52 1014.5
20260503190324 74 300 5.2 9.6 0.00 0.00 0.00 52 1014.6
20260503185334 73 348 6.1 8.7 0.00 0.00 0.00 53 1014.6
20260503184342 72 322 5.2 9.6 0.00 0.00 0.00 55 1014.8
20260503183351 72 311 6.1 10.4 0.00 0.00 0.00 54 1014.9
20260503182341 73 299 6.1 10.4 0.00 0.00 0.00 55 1015.0
20260503181337 72 341 6.1 9.6 0.00 0.00 0.00 59 1015.1
20260503180341 72 319 5.2 9.6 0.00 0.00 0.00 61 1015.1
20260503175344 71 296 6.1 11.3 0.00 0.00 0.00 63 1015.2
20260503174334 71 327 5.2 8.7 0.00 0.00 0.00 66 1015.2
20260503173343 70 341 6.1 9.6 0.00 0.00 0.00 65 1015.2
20260503172317 70 330 4.3 7.8 0.00 0.00 0.00 66 1015.3
20260503171317 70 296 3.5 7.8 0.00 0.00 0.00 63 1015.4
20260503170336 69 323 3.5 7.0 0.00 0.00 0.00 65 1015.6
20260503150316 59 349 2.6 3.5 0.00 0.00 0.00 82 1016.1
20260503140315 48 355 0.0 0.0 0.00 0.00 0.00 96 1016.0
20260503131318 47 355 0.0 0.0 0.00 0.00 0.00 95 1015.8
20260503130326 47 355 0.0 0.0 0.00 0.00 0.00 95 1015.8
20260503110338 49 355 0.0 0.0 0.00 0.00 0.00 93 1016.0
20260503090317 51 355 0.0 0.0 0.00 0.00 0.00 89 1016.1
20260503081338 53 355 0.0 0.0 0.00 0.00 0.00 87 1016.1
20260503080347 53 355 0.0 0.0 0.00 0.00 0.00 86 1016.2
20260503072320 54 355 0.0 0.0 0.00 0.00 0.00 84 1016.1
20260503071315 55 355 0.0 0.0 0.00 0.00 0.00 82 1016.0
20260503070329 55 355 0.0 0.0 0.00 0.00 0.00 81 1015.9
20260503060315 59 17 0.0 0.0 0.00 0.00 0.00 72 1015.8
20260503054337 61 17 0.0 1.7 0.00 0.00 0.00 68 1015.8
20260503053323 62 322 0.0 0.0 0.00 0.00 0.00 65 1015.7
20260503052332 63 322 0.0 2.6 0.00 0.00 0.00 63 1015.7
20260503051320 64 346 2.6 4.3 0.00 0.00 0.00 62 1015.5
20260503050329 64 319 2.6 5.2 0.00 0.00 0.00 61 1015.5
20260503045339 64 5 2.6 5.2 0.00 0.00 0.00 60 1015.4
20260503044326 65 355 2.6 7.0 0.00 0.00 0.00 60 1015.3
20260503043318 65 317 3.5 7.8 0.00 0.00 0.00 60 1015.3
20260503042351 65 5 5.2 9.6 0.00 0.00 0.00 59 1015.1
20260503041316 66 327 3.5 7.8 0.00 0.00 0.00 59 1015.0
20260503040325 66 336 6.1 8.7 0.00 0.00 0.00 59 1014.9
20260503035334 67 319 7.0 10.4 0.00 0.00 0.00 58 1014.7
20260503034347 67 328 6.1 10.4 0.00 0.00 0.00 58 1014.5
20260503033359 67 331 5.2 10.4 0.00 0.00 0.00 57 1014.4
20260503032323 68 323 5.2 8.7 0.00 0.00 0.00 56 1014.2
20260503031316 68 348 7.0 10.4 0.00 0.00 0.00 55 1014.3
20260503030322 69 341 5.2 9.6 0.00 0.00 0.00 54 1014.2
20260503025334 69 302 6.1 9.6 0.00 0.00 0.00 53 1014.1
20260503024326 70 315 5.2 12.2 0.00 0.00 0.00 53 1014.1
20260503023315 70 314 7.0 11.3 0.00 0.00 0.00 52 1014.1
20260503022330 70 338 7.8 11.3 0.00 0.00 0.00 51 1014.0
20260503021344 71 311 7.0 11.3 0.00 0.00 0.00 50 1014.0
20260503020325 71 319 6.1 13.0 0.00 0.00 0.00 50 1014.1
20260503015335 71 320 7.8 14.8 0.00 0.00 0.00 50 1014.1
20260503014325 71 317 8.7 13.0 0.00 0.00 0.00 49 1014.2
20260503013326 72 346 10.4 14.8 0.00 0.00 0.00 47 1014.4
20260503012334 72 306 9.6 13.0 0.00 0.00 0.00 46 1014.5
20260503011322 72 296 10.4 15.6 0.00 0.00 0.00 46 1014.5
20260503010332 73 346 11.3 16.5 0.00 0.00 0.00 46 1014.6
20260503005341 73 326 12.2 16.5 0.00 0.00 0.00 45 1014.6
20260503004319 73 327 11.3 17.4 0.00 0.00 0.00 47 1014.7
20260503003322 73 308 7.8 13.0 0.00 0.00 0.00 54 1014.6
20260503002324 74 284 7.8 12.2 0.00 0.00 0.00 55 1014.7
20260503001328 74 327 7.0 12.2 0.00 0.00 0.00 55 1014.8
20260503000325 74 294 6.1 13.0 0.00 0.00 0.00 56 1014.9
20260502235339 73 288 7.0 13.9 0.00 0.00 0.00 57 1014.9
20260502234328 74 313 7.0 13.9 0.00 0.00 0.00 56 1014.9
20260502233316 74 330 7.8 12.2 0.00 0.00 0.00 56 1015.0
20260502232331 73 305 7.0 12.2 0.00 0.00 0.00 58 1015.2
20260502231334 74 317 7.0 11.3 0.00 0.00 0.00 58 1015.3
20260502230345 74 338 7.8 11.3 0.00 0.00 0.00 59 1015.4
20260502225339 73 303 7.0 10.4 0.00 0.00 0.00 61 1015.4
20260502224323 73 341 7.8 13.0 0.00 0.00 0.00 61 1015.6
20260502223326 73 306 6.1 12.2 0.00 0.00 0.00 62 1015.7
20260502222333 73 336 7.0 12.2 0.00 0.00 0.00 62 1015.9
20260502221333 73 299 9.6 14.8 0.00 0.00 0.00 62 1016.0
20260502220320 72 332 9.6 15.6 0.00 0.00 0.00 63 1016.0
20260502215328 73 309 8.7 13.9 0.00 0.00 0.00 64 1016.1
20260502214337 72 346 9.6 15.6 0.00 0.00 0.00 63 1016.2
20260502213319 73 311 7.8 12.2 0.00 0.00 0.00 63 1016.3